DW5686 Weather Reports


Display with metric or nautical units.
time (UTC)temp
F
wind
direction
speed
MPH
gust
MPH
rain 1hr
in
rain 24hr
in
rain mn
in
humidity
%
barometer
mb
20260502130503 54 17 4.0 7.0 0.00 0.00 0.00 71 1013.2
20260502123504 53 30 4.0 8.0 0.00 0.00 0.00 75 1012.9
20260502123004 53 24 4.0 11.0 0.00 0.00 0.00 77 1012.6
20260502122503 53 20 6.0 11.0 0.00 0.00 0.00 77 1012.4
20260502122003 54 12 4.0 8.0 0.00 0.00 0.00 77 1012.8
20260502121524 54 10 2.0 7.0 0.00 0.00 0.00 75 1013.0
20260502121004 54 26 3.0 11.0 0.00 0.00 0.00 76 1012.7
20260502120504 54 26 5.0 11.0 0.00 0.00 0.00 75 1012.1
20260502115503 54 23 8.0 16.0 0.00 0.00 0.00 71 1011.9
20260502115003 54 22 8.0 13.0 0.00 0.00 0.00 74 1012.0
20260502114503 54 25 7.0 15.0 0.00 0.00 0.00 75 1012.5
20260502114004 54 24 7.0 15.0 0.00 0.00 0.00 76 1012.4
20260502113503 54 10 7.0 14.0 0.00 0.00 0.00 77 1012.2
20260502113003 54 20 7.0 14.0 0.00 0.00 0.00 79 1012.2
20260502112504 54 9 4.0 12.0 0.00 0.00 0.00 81 1012.1
20260502112004 54 27 5.0 12.0 0.00 0.00 0.00 79 1012.3
20260502111503 54 8 5.0 12.0 0.00 0.00 0.00 79 1012.2
20260502111004 54 12 7.0 12.0 0.00 0.00 0.00 82 1011.9
20260502110503 54 13 4.0 8.0 0.00 0.00 0.00 82 1011.9
20260502110004 54 18 4.0 7.0 0.00 0.00 0.00 84 1011.7
20260502105503 54 19 3.0 7.0 0.00 0.00 0.00 84 1011.7
20260502105003 54 28 4.0 7.0 0.00 0.00 0.00 83 1011.6
20260502104524 54 23 4.0 9.0 0.00 0.00 0.00 83 1011.7
20260502104004 54 26 5.0 9.0 0.00 0.00 0.00 83 1011.7
20260502103503 54 27 4.0 8.0 0.00 0.00 0.00 83 1011.8
20260502103003 54 24 3.0 8.0 0.00 0.00 0.00 83 1011.8
20260502102503 54 30 4.0 8.0 0.00 0.00 0.00 84 1011.6
20260502101504 54 30 4.0 14.0 0.00 0.00 0.00 84 1011.7
20260502101003 54 32 4.0 14.0 0.00 0.00 0.00 84 1011.8
20260502100503 54 23 4.0 12.0 0.00 0.00 0.00 87 1011.9
20260502091504 54 18 4.0 7.0 0.00 0.00 0.00 86 1012.4
20260502091024 55 21 2.0 4.0 0.00 0.00 0.00 86 1012.6
20260502090504 55 1 3.0 5.0 0.00 0.00 0.00 86 1012.6
20260502071502 56 151 0.0 2.0 0.00 0.00 0.00 78 1011.3
20260502071002 56 151 1.0 2.0 0.00 0.00 0.00 78 1011.2
20260502070503 56 0 0.0 2.0 0.00 0.00 0.00 78 1011.3
20260502070002 56 151 1.0 3.0 0.00 0.00 0.00 78 1011.3
20260502065502 56 151 2.0 4.0 0.00 0.00 0.00 77 1011.3
20260502065003 56 151 1.0 4.0 0.00 0.00 0.00 77 1011.4
20260502064502 56 151 0.0 2.0 0.00 0.00 0.00 77 1011.5
20260502064003 56 151 1.0 3.0 0.00 0.00 0.00 77 1011.4
20260502063502 56 151 2.0 3.0 0.00 0.00 0.00 77 1011.5
20260502063003 56 151 2.0 3.0 0.00 0.00 0.00 78 1011.5
20260502062503 56 151 2.0 3.0 0.00 0.00 0.00 77 1011.5
20260502062002 56 151 1.0 2.0 0.00 0.00 0.00 77 1011.6
20260502061503 57 151 0.0 2.0 0.00 0.00 0.00 77 1011.7
20260502061003 57 151 1.0 3.0 0.00 0.00 0.00 76 1011.6
20260502060502 57 162 1.0 3.0 0.00 0.00 0.00 76 1011.7
20260502060002 57 169 2.0 3.0 0.00 0.00 0.00 76 1011.8
20260502055503 57 169 1.0 3.0 0.00 0.00 0.00 76 1011.9
20260502055003 57 169 1.0 3.0 0.00 0.00 0.00 76 1011.9
20260502054502 57 169 1.0 3.0 0.00 0.00 0.00 76 1011.9
20260502054002 57 169 2.0 3.0 0.00 0.00 0.00 76 1012.1
20260502053502 57 169 0.0 3.0 0.00 0.00 0.00 76 1012.1
20260502053003 57 169 1.0 2.0 0.00 0.00 0.00 76 1012.1
20260502052502 57 169 1.0 2.0 0.00 0.00 0.00 75 1012.1
20260502052003 57 169 1.0 5.0 0.00 0.00 0.00 75 1012.1
20260502051502 57 169 1.0 5.0 0.00 0.00 0.00 75 1012.1
20260502051003 57 146 3.0 5.0 0.00 0.00 0.00 75 1012.2
20260502050502 57 160 1.0 4.0 0.00 0.00 0.00 75 1012.2
20260502050002 57 160 2.0 5.0 0.00 0.00 0.00 75 1012.1
20260502045523 57 164 2.0 5.0 0.00 0.00 0.00 75 1012.3
20260502045002 57 158 3.0 5.0 0.00 0.00 0.00 75 1012.3
20260502044504 57 164 2.0 4.0 0.00 0.00 0.00 75 1012.4
20260502044003 57 164 2.0 2.0 0.00 0.00 0.00 75 1012.5
20260502043524 57 164 0.0 2.0 0.00 0.00 0.00 75 1012.4
20260502043023 57 164 0.0 2.0 0.00 0.00 0.00 76 1012.4
20260502042524 57 164 0.0 2.0 0.00 0.00 0.00 76 1012.4
20260502042024 57 164 1.0 2.0 0.00 0.00 0.00 76 1012.5
20260502041502 57 164 1.0 2.0 0.00 0.00 0.00 75 1012.3
20260502041002 57 0 0.0 1.0 0.00 0.00 0.00 75 1012.3
20260502040503 57 164 0.0 1.0 0.00 0.00 0.00 75 1012.5
20260502040003 57 0 0.0 0.0 0.00 0.00 0.00 75 1012.5
20260502035502 57 0 0.0 3.0 0.00 0.00 0.00 75 1012.4
20260502035024 57 0 0.0 3.0 0.00 0.00 0.00 74 1012.5
20260502034502 57 0 0.0 3.0 0.00 0.00 0.00 74 1012.4
20260502034003 57 0 0.0 3.0 0.00 0.00 0.00 74 1012.5
20260502033502 57 164 2.0 3.0 0.00 0.00 0.00 74 1012.5
20260502033003 57 0 0.0 0.0 0.00 0.00 0.00 74 1012.5
20260502032504 57 0 0.0 2.0 0.00 0.00 0.00 74 1012.6
20260502032024 57 0 0.0 2.0 0.00 0.00 0.00 74 1012.8
20260502031523 57 164 1.0 2.0 0.00 0.00 0.00 74 1012.8
20260502031002 57 0 0.0 2.0 0.00 0.00 0.00 74 1012.8
20260502030502 57 164 1.0 2.0 0.00 0.00 0.00 74 1012.8
20260502030002 58 0 0.0 1.0 0.00 0.00 0.00 72 1012.8
20260502025503 58 0 0.0 2.0 0.00 0.00 0.00 72 1012.8
20260502025003 58 164 0.0 3.0 0.00 0.00 0.00 71 1012.8
20260502024502 58 164 1.0 3.0 0.00 0.00 0.00 71 1012.8
20260502024003 58 164 2.0 3.0 0.00 0.00 0.00 70 1012.7
20260502023502 58 164 1.0 3.0 0.00 0.00 0.00 70 1012.7
20260502023003 58 164 2.0 4.0 0.00 0.00 0.00 70 1012.8
20260502022502 58 169 3.0 4.0 0.00 0.00 0.00 70 1012.9
20260502022003 58 179 1.0 5.0 0.00 0.00 0.00 70 1012.8
20260502021503 58 180 2.0 5.0 0.00 0.00 0.00 70 1013.0
20260502021002 58 188 0.0 4.0 0.00 0.00 0.00 70 1013.0
20260502020523 59 188 2.0 4.0 0.00 0.00 0.00 69 1012.8
20260502020024 59 157 2.0 4.0 0.00 0.00 0.00 69 1012.7
20260502015502 59 175 2.0 3.0 0.00 0.00 0.00 69 1012.6
20260502015004 59 174 2.0 4.0 0.00 0.00 0.00 69 1012.6
20260502014502 59 174 2.0 5.0 0.00 0.00 0.00 69 1012.6
20260502014024 59 164 3.0 5.0 0.00 0.00 0.00 69 1012.7
20260502013503 59 171 3.0 5.0 0.00 0.00 0.00 69 1012.8
20260502013002 59 179 2.0 5.0 0.00 0.00 0.00 69 1012.7
20260502012502 59 148 2.0 5.0 0.00 0.00 0.00 69 1012.6
20260502012023 59 165 1.0 4.0 0.00 0.00 0.00 69 1012.7
20260502011503 59 165 2.0 4.0 0.00 0.00 0.00 69 1012.7
20260502011003 59 165 2.0 4.0 0.00 0.00 0.00 68 1012.7
20260502010525 59 146 1.0 5.0 0.00 0.00 0.00 68 1012.8
20260502010024 60 194 1.0 7.0 0.00 0.00 0.00 68 1012.6
20260502005502 60 166 3.0 7.0 0.00 0.00 0.00 68 1012.5
20260502005003 60 167 3.0 7.0 0.00 0.00 0.00 67 1012.5
20260502004503 60 169 2.0 5.0 0.00 0.00 0.00 67 1012.3
20260502004024 60 154 2.0 7.0 0.00 0.00 0.00 65 1012.2
20260502003502 60 169 2.0 7.0 0.00 0.00 0.00 65 1012.3
20260502003002 60 162 4.0 7.0 0.00 0.00 0.00 64 1012.3
20260502002504 60 175 3.0 7.0 0.00 0.00 0.00 65 1012.2
20260502002023 60 182 3.0 6.0 0.00 0.00 0.00 64 1012.2
20260502001503 60 165 3.0 5.0 0.00 0.00 0.00 64 1011.8
20260502001004 60 187 2.0 6.0 0.00 0.00 0.00 64 1011.6
20260502000503 60 175 3.0 6.0 0.00 0.00 0.00 63 1011.5
20260502000003 61 153 2.0 7.0 0.00 0.00 0.00 63 1011.5
20260501235502 61 184 2.0 7.0 0.00 0.00 0.00 63 1011.7
20260501235002 61 158 3.0 7.0 0.00 0.00 0.00 62 1011.8
20260501234523 61 174 4.0 7.0 0.00 0.00 0.00 62 1011.5
20260501234003 61 170 2.0 7.0 0.00 0.00 0.00 62 1011.3
20260501233503 62 150 2.0 6.0 0.00 0.00 0.00 61 1011.3
20260501233023 62 167 2.0 7.0 0.00 0.00 0.00 61 1011.4
20260501232525 62 181 3.0 9.0 0.00 0.00 0.00 60 1011.2
20260501232023 62 161 5.0 9.0 0.00 0.00 0.00 60 1011.3
20260501231504 62 169 3.0 7.0 0.00 0.00 0.00 60 1011.3
20260501231003 62 178 4.0 7.0 0.00 0.00 0.00 59 1011.3
20260501230525 62 167 3.0 8.0 0.00 0.00 0.00 59 1011.3
20260501230003 62 160 3.0 9.0 0.00 0.00 0.00 59 1011.5
20260501225502 62 189 5.0 10.0 0.00 0.00 0.00 58 1011.4
20260501225003 62 171 5.0 10.0 0.00 0.00 0.00 57 1011.5
20260501224503 62 170 6.0 9.0 0.00 0.00 0.00 57 1011.5
20260501224003 62 159 5.0 10.0 0.00 0.00 0.00 58 1011.5
20260501223523 62 166 6.0 10.0 0.00 0.00 0.00 57 1011.5
20260501223025 63 185 3.0 13.0 0.00 0.00 0.00 57 1011.6
20260501222502 63 171 7.0 12.0 0.00 0.00 0.00 56 1011.6
20260501222002 63 165 7.0 12.0 0.00 0.00 0.00 56 1011.6
20260501221525 63 173 5.0 10.0 0.00 0.00 0.00 55 1011.7
20260501221003 63 182 3.0 10.0 0.00 0.00 0.00 55 1011.8
20260501220502 64 164 6.0 10.0 0.00 0.00 0.00 53 1011.7
20260501220002 64 165 5.0 9.0 0.00 0.00 0.00 55 1011.7
20260501215503 63 135 3.0 9.0 0.00 0.00 0.00 53 1011.7
20260501215003 64 170 4.0 13.0 0.00 0.00 0.00 52 1011.9
20260501214503 64 157 7.0 13.0 0.00 0.00 0.00 52 1011.9
20260501214002 64 176 6.0 12.0 0.00 0.00 0.00 51 1011.9
20260501213502 64 168 7.0 12.0 0.00 0.00 0.00 51 1012.0
20260501213003 64 151 3.0 8.0 0.00 0.00 0.00 52 1011.9
20260501212503 64 156 4.0 9.0 0.00 0.00 0.00 51 1011.8
20260501212003 64 168 3.0 9.0 0.00 0.00 0.00 50 1011.8
20260501211502 64 154 2.0 12.0 0.00 0.00 0.00 51 1011.8
20260501211002 64 171 6.0 12.0 0.00 0.00 0.00 50 1011.8
20260501210503 66 171 6.0 9.0 0.00 0.00 0.00 50 1011.9
20260501210002 65 158 6.0 8.0 0.00 0.00 0.00 52 1012.0
20260501205503 64 100 2.0 8.0 0.00 0.00 0.00 52 1012.2
20260501205025 64 173 2.0 7.0 0.00 0.00 0.00 50 1012.3
20260501204502 65 81 3.0 11.0 0.00 0.00 0.00 48 1012.4
20260501204023 65 155 4.0 11.0 0.00 0.00 0.00 48 1012.3
20260501203523 65 173 5.0 13.0 0.00 0.00 0.00 48 1012.2
20260501203003 65 156 7.0 13.0 0.00 0.00 0.00 48 1012.3
20260501202503 66 158 6.0 10.0 0.00 0.00 0.00 48 1012.5
20260501202004 65 166 5.0 9.0 0.00 0.00 0.00 47 1012.4
20260501201503 66 154 6.0 9.0 0.00 0.00 0.00 47 1012.4
20260501201002 66 164 4.0 8.0 0.00 0.00 0.00 49 1012.4
20260501200504 65 89 2.0 7.0 0.00 0.00 0.00 48 1012.6
20260501200025 66 160 4.0 8.0 0.00 0.00 0.00 47 1012.6
20260501195504 66 132 3.0 11.0 0.00 0.00 0.00 47 1012.8
20260501195003 67 167 6.0 11.0 0.00 0.00 0.00 49 1012.8
20260501194503 65 154 3.0 9.0 0.00 0.00 0.00 46 1013.0
20260501194003 65 185 3.0 11.0 0.00 0.00 0.00 47 1013.0
20260501193524 66 167 4.0 11.0 0.00 0.00 0.00 46 1013.2
20260501193004 65 178 5.0 11.0 0.00 0.00 0.00 46 1013.4
20260501192503 65 176 5.0 8.0 0.00 0.00 0.00 47 1013.4
20260501192024 64 164 4.0 8.0 0.00 0.00 0.00 46 1013.4
20260501191504 64 141 3.0 10.0 0.00 0.00 0.00 45 1013.5
20260501191004 65 143 5.0 10.0 0.00 0.00 0.00 44 1013.6
20260501190503 65 157 3.0 10.0 0.00 0.00 0.00 46 1013.8
20260501190023 64 170 4.0 10.0 0.00 0.00 0.00 49 1014.0
20260501185503 63 156 5.0 9.0 0.00 0.00 0.00 48 1014.0
20260501185003 63 152 4.0 10.0 0.00 0.00 0.00 49 1014.2
20260501184524 63 175 5.0 10.0 0.00 0.00 0.00 48 1014.0
20260501184002 62 188 5.0 11.0 0.00 0.00 0.00 48 1014.1
20260501183502 62 178 6.0 11.0 0.00 0.00 0.00 47 1014.2
20260501183003 63 165 7.0 12.0 0.00 0.00 0.00 46 1014.1
20260501182504 62 166 4.0 12.0 0.00 0.00 0.00 47 1014.2
20260501182003 62 169 6.0 12.0 0.00 0.00 0.00 46 1014.1
20260501181523 63 141 2.0 11.0 0.00 0.00 0.00 44 1014.1
20260501181003 62 180 6.0 11.0 0.00 0.00 0.00 46 1014.1
20260501180524 62 86 2.0 5.0 0.00 0.00 0.00 43 1014.2
20260501180004 63 135 2.0 5.0 0.00 0.00 0.00 45 1014.3
20260501175504 62 334 2.0 4.0 0.00 0.00 0.00 43 1014.4
20260501175002 63 206 1.0 9.0 0.00 0.00 0.00 44 1014.4
20260501174503 63 161 3.0 9.0 0.00 0.00 0.00 46 1014.5
20260501174002 63 118 2.0 9.0 0.00 0.00 0.00 43 1014.4
20260501173504 62 46 2.0 10.0 0.00 0.00 0.00 45 1014.5
20260501173024 63 157 3.0 11.0 0.00 0.00 0.00 44 1014.4
20260501172502 63 167 3.0 12.0 0.00 0.00 0.00 43 1014.4
20260501172002 62 173 5.0 7.0 0.00 0.00 0.00 44 1014.6
20260501171504 62 128 2.0 13.0 0.00 0.00 0.00 46 1014.7
20260501171003 62 181 6.0 13.0 0.00 0.00 0.00 45 1014.9
20260501170503 62 35 3.0 9.0 0.00 0.00 0.00 44 1014.9
20260501170003 62 170 4.0 10.0 0.00 0.00 0.00 45 1014.7
20260501165503 61 148 3.0 10.0 0.00 0.00 0.00 49 1014.9
20260501165024 61 160 4.0 10.0 0.00 0.00 0.00 47 1014.8
20260501164504 61 122 2.0 6.0 0.00 0.00 0.00 47 1015.0
20260501164023 61 81 2.0 7.0 0.00 0.00 0.00 44 1015.1
20260501163503 62 155 4.0 7.0 0.00 0.00 0.00 45 1015.2
20260501163003 61 157 3.0 6.0 0.00 0.00 0.00 47 1015.3
20260501162503 61 32 3.0 5.0 0.00 0.00 0.00 43 1015.3
20260501162024 61 16 2.0 8.0 0.00 0.00 0.00 47 1015.3
20260501161503 61 21 2.0 10.0 0.00 0.00 0.00 44 1015.3
20260501161003 61 9 7.0 10.0 0.00 0.00 0.00 44 1015.3
20260501160525 62 20 3.0 9.0 0.00 0.00 0.00 44 1015.4
20260501160004 62 15 7.0 9.0 0.00 0.00 0.00 45 1015.3
20260501155504 60 19 3.0 6.0 0.00 0.00 0.00 44 1015.4
20260501155004 60 173 3.0 7.0 0.00 0.00 0.00 45 1015.6
20260501154504 60 27 2.0 7.0 0.00 0.00 0.00 44 1015.6
20260501154003 60 68 1.0 12.0 0.00 0.00 0.00 45 1015.5
20260501153503 60 44 5.0 13.0 0.00 0.00 0.00 43 1015.4
20260501153003 60 46 6.0 13.0 0.00 0.00 0.00 43 1015.3
20260501152503 61 28 3.0 7.0 0.00 0.00 0.00 44 1015.4
20260501152004 61 39 4.0 9.0 0.00 0.00 0.00 42 1015.3
20260501151503 61 29 5.0 9.0 0.00 0.00 0.00 45 1015.2
20260501151025 61 35 5.0 10.0 0.00 0.00 0.00 44 1015.4
20260501150503 60 170 3.0 10.0 0.00 0.00 0.00 45 1015.4
20260501145025 61 28 4.0 15.0 0.00 0.00 0.00 45 1015.3
20260501144503 61 12 9.0 15.0 0.00 0.00 0.00 46 1015.3
20260501144003 61 33 6.0 11.0 0.00 0.00 0.00 46 1015.4
20260501143504 60 28 5.0 12.0 0.00 0.00 0.00 45 1015.4
20260501143003 61 14 8.0 12.0 0.00 0.00 0.00 46 1015.4